User: anonymous
Location: Unspecified
(0.0000°N, 0.0000°E)
Time: 03:36:28
(UTC+02:00)
Language:

Cosmos 1315 Rocket - Orbit

View from above orbital plane
View from above orbital plane
View from above satellite
View from above satellite

Ground track
Ground track

The orbit data is extracted from the following two-line orbital elements,

1 12904U 81103B   14294.47112621  .00003279  00000-0  24042-3 0  6109
2 12904 081.1755 301.7801 0029773 015.9077 344.3072 15.02910121347012
Epoch (UTC): 21 October 2014 11:18:25
Eccentricity: 0.0029773
inclination: 81.1755°
perigee height: 537 km
apogee height: 578 km
right ascension of ascending node: 301.7801°
argument of perigee: 15.9077°
revolutions per day: 15.02910121
mean anomaly at epoch: 344.3072°
orbit number at epoch: 34701

The dashed part of the orbit path shows where the satellite is in the earth's shadow,  

DLR